Location: Unspecified
(0.0000°N, 0.0000°E)
Time: 20:05:37
(UTC+00:00)

OTV 5 (USA 277) - Pass Details

Date: 19 January 2018
Orbit: 404 x 417 km, 43.0° (Epoch: 07 September)

Event Time Altitude Azimuth Distance (km) Brightness Sun altitude
Exits shadow 05:06:19 24° 335° (NNW) 866 ? -15.1°
Maximum altitude 05:08:01 57° 46° (NE) 475 ? -14.7°
Drops below altitude 10° 05:11:14 10° 125° (SE) 1,450 ? -13.9°
Sets 05:13:21 0° 130° (SE) 2,311 ? -13.4°
